Regional Weather Roundup
Issued by NWS Sioux Falls, SD

Home | Current Version | Previous Version | Graphics & Text | Print | Product List | Glossary On
Versions: 1 2 3 4 5 6 7 8 9 10 11 12 13 14 15 16 17 18 19 20 21 22 23 24 25 26 27 28 29 30 31 32 33 34 35 36 37 38 39 40 41 42 43 44 45 46 47 48 49 50
000
ASUS43 KFSD 240210
RWRFSD

WEATHER ROUNDUP FOR SE SOUTH DAKOTA/SW MINNESOTA/NW IOWA
NATIONAL WEATHER SERVICE SIOUX FALLS SD
900 PM CDT THU OCT 23 2014

NOTE: "FAIR" INDICATES FEW OR NO CLOUDS BELOW 12,000 FEET WITH NO
SIGNIFICANT WEATHER AND OR OBSTRUCTIONS TO VISIBILITY.


SDZ038>040-050-052>070-240300-
SOUTHEAST SOUTH DAKOTA

CITY           SKY/WX    TMP DP  RH WIND       PRES   REMARKS
CHAMBERLAIN    MOCLDY    52  41  66 SE5       29.86F
HURON          MOCLDY    53  43  68 SE5       29.88F
MADISON        FAIR      54  46  76 S8        29.94S
MITCHELL       MOCLDY    56  46  69 S13       29.90S
SIOUX FALLS    MOCLDY    60  45  57 S13       29.95S
WINNER         FAIR      61  35  37 S8        29.87F
YANKTON        PTCLDY    61  48  63 S5        29.94S
$$

MNZ071-072-080-081-089-090-097-098-240300-
SOUTHWEST MINNESOTA

CITY           SKY/WX    TMP DP  RH WIND       PRES   REMARKS
FAIRMONT       CLEAR     50  34  53 SW7       30.00S
JACKSON        CLEAR     50  41  71 S7        30.00S
LUVERNE        CLEAR     48  43  81 S3        29.97F
MARSHALL       CLEAR     54  43  66 S8        29.93F
MONTEVIDEO     CLEAR     57  45  62 SW7       29.93F
PIPESTONE      CLEAR     55  45  67 S9        29.95F
REDWOOD FALLS  CLEAR     53  41  63 S9        29.95S
TRACY          CLEAR     58  44  60 S9        29.96F
WINDOM           N/A     55  43  62 S6        29.99S
WORTHINGTON    CLEAR     54  43  66 S10       29.99F
$$

IAZ001>003-012>014-020>022-031-032-NEZ013-014-SDZ071-240300-
NORTHWEST IOWA

CITY           SKY/WX    TMP DP  RH WIND       PRES   REMARKS
CHEROKEE       CLEAR     49  48  95 CALM      30.00F
DENISON        CLEAR     50  45  81 E6        30.02R
ESTHERVILLE    CLEAR     49  41  74 S6        30.00S
LE MARS        PTCLDY    55  46  71 S7        29.99F
ORANGE CITY    CLEAR     57  45  62 S6        29.99F
SHELDON        FAIR      54  45  71 S7        29.98F
SIOUX CITY     CLEAR     54  45  71 SE7       29.99F
SPENCER        CLEAR     48  43  82 S6        30.01
STORM LAKE     CLEAR     55  41  58 S8        30.03S
$$

ABBREVIATIONS USED IN REMARKS
   TC - TEMPERATURE IN CELSIUS
  WCI - WIND CHILL INDEX
   HX - HEAT INDEX
  VSB - VISIBILITY




USA.gov is the U.S. government's official web portal to all federal, state and local government web resources and services.